Location: Bernardo Arroyo
(34.3095°N, 106.8514°W)
Time: 21:18:23
(UTC+00:00)

Daily predictions for brighter satellites

Satellite Brightness Start Highest point End
(mag) Time Altitude Azimuth Time Altitude Azimuth Time Altitude Azimuth
Cosmos 1980 Rocket 2.9 12:02:18 10° S 12:07:42 52° ESE 12:13:05 10° NNE
COSMOS 2455 2.8 12:06:48 10° SSW 12:12:47 86° ESE 12:18:50 10° NNE
IRS-1D 3.6 12:08:27 10° NNE 12:13:39 78° ESE 12:18:43 10° S
Meteor 1-21 Rocket 4.1 12:09:24 10° N 12:15:12 81° W 12:20:52 10° S
SL-8 R/B 3.6 12:14:55 56° WSW 12:15:21 59° SW 12:19:58 10° SE
USA 215 4.5 12:11:51 10° E 12:17:40 35° NE 12:23:30 10° NNW
Cosmos 1697 Rocket 2.8 12:18:26 39° WSW 12:19:55 49° WNW 12:25:24 10° N
IUS-17 SRM-1 4.0 12:20:53 32° SW 12:22:14 44° S 12:32:49 10° ESE
Aureole 3 3.7 12:17:41 10° N 12:23:08 79° W 12:27:33 10° S
SKYMED 2 3.6 12:21:18 10° SSE 12:25:37 77° ENE 12:29:57 10° N
Cosmos 2297 Rocket 2.1 12:23:26 18° NNW 12:27:33 62° WSW 12:33:05 10° S
USA 59 Rocket 1.3 12:32:31 17° NNW 12:32:31 17° NNW 12:33:37 10° N
COSMO-SKYMED 1 3.3 12:29:00 10° SSE 12:32:57 49° ENE 12:36:56 10° N
CZ-4 R/B 3.8 12:27:59 10° NNE 12:32:59 85° WNW 12:37:55 10° SSW
Cosmos 1570 Rocket 4.1 12:28:49 10° NNW 12:34:02 76° ENE 12:39:13 10° SSE
Cosmos 2123 Rocket 3.9 12:29:28 10° N 12:35:40 73° W 12:41:48 10° S
Cosmos 1486 Rocket 4.2 12:42:47 10° SW 12:47:52 48° WNW 12:53:00 10° N
Cosmos 1908 Rocket 3.5 12:44:52 10° S 12:49:11 90° W 12:53:33 10° N
Cosmos 1777 Rocket 4.0 12:44:20 10° SSW 12:49:24 58° WNW 12:54:30 10° N
Cosmos 2344 4.3 12:40:40 10° NW 12:49:26 66° WSW 13:01:50 10° SSE
Cosmos 2208 Rocket 4.2 12:45:35 10° NNW 12:51:01 78° ENE 12:56:26 10° SSE
Cosmos 2221 Rocket 4.2 12:49:01 10° N 12:53:31 62° E 12:57:58 10° SSE
Cosmos 1535 Rocket 4.5 12:47:36 10° SSW 12:53:56 67° W 13:00:18 10° N
SL-23 DEB 3.4 12:53:04 24° WNW 12:54:50 68° SW 12:58:38 10° SE
Cosmos 1733 Rocket 4.4 12:55:51 19° WNW 12:55:51 19° WNW 12:58:23 10° NNW
Cosmos 2369 3.9 12:54:39 10° SSW 13:00:19 80° ESE 13:06:00 10° NNE
Cosmos 2263 Rocket 2.9 12:55:52 10° NNW 13:01:28 57° ENE 13:06:57 10° SE
SMAP 4.4 12:57:17 10° NNE 13:01:44 44° E 13:06:09 10° S
ISS -1.8 12:59:17 10° SSW 13:02:15 30° SE 13:05:14 10° ENE
Cosmos 1869 4.1 13:03:15 10° S 13:06:42 49° E 13:10:08 10° NNE
CBERS-1 4.4 13:03:11 10° NNE 13:08:17 70° ESE 13:13:22 10° S
Cosmos 773 Rocket 4.0 13:04:42 10° NNW 13:09:52 64° WSW 13:14:58 10° S
SL-16 R/B 4.0 13:07:53 10° SSE 13:12:59 36° ESE 13:18:05 10° NE
Cosmos 1354 Rocket 4.0 13:08:10 10° SSW 13:13:19 64° WNW 13:18:31 10° N
Cosmos 1378 Rocket 4.5 13:11:50 10° NW 13:15:19 25° W 13:18:49 10° SW
OAO 2 Rocket 3.7 13:10:52 13° W 13:15:22 56° SSW 13:20:29 10° ESE
OAO 3 Rocket 3.7 13:13:25 12° W 13:17:20 44° SSW 13:21:40 10° SE
GP-B 3.0 13:14:18 10° N 13:18:40 81° W 13:23:02 10° S
Cosmos 1605 Rocket 4.4 13:14:48 10° SSW 13:20:49 43° W 13:26:54 10° N
Helios 1A Rocket 2.8 13:18:44 10° SSE 13:21:59 66° ENE 13:25:14 10° N
MOS 1 Rocket 3.3 13:17:44 10° NNE 13:22:04 82° E 13:26:36 10° S
Cosmos 2227 Rocket 2.5 13:20:59 10° NNW 13:26:24 47° WSW 13:31:48 10° S
Cosmos 1812 2.4 13:30:49 10° SW 13:32:58 27° W 13:35:08 10° NNW
Cosmos 1025 Rocket 3.9 13:30:32 10° NNW 13:34:19 29° W 13:38:04 10° SSW
Cosmos 372 Rocket 4.3 13:30:01 10° S 13:35:02 73° ESE 13:40:07 10° NNE
